(204396) = 2004 TE281

Discovered at Kitt Peak on 2004-10-10 by Spacewatch.

Orbit

Orbit type: Main Belt

Note: WebGL enabled browser required.

epoch2024-03-31.0
epoch JD2460400.5
perihelion date2023-03-25.47157
perihelion JD2460028.97157
argument of perihelion (°)50.88963
ascending node (°)71.13119
inclination (°)3.76485
eccentricity0.0726491
perihelion distance (AU)2.1560552
Tisserand w.r.t. Jupiter3.6
ΔV w.r.t. Earth (km/sec)9.2
semimajor axis (AU)2.3249616
mean anomaly (°)103.29332
mean daily motion (°/day)0.27802270
aphelion distance (AU)2.494
period (years)3.55
P-vector [x]-0.52864290
P-vector [y]0.75712895
P-vector [z]0.38378697
Q-vector [x]-0.84656728
Q-vector [y]-0.50335421
Q-vector [z]-0.17308492
absolute magnitude17.27
phase slope0.15
uncertainty0
referenceMPEC 2024-E11
observations used336
oppositions11
arc length (days)7151
first opposition used2002
last opposition used2021
residual rms (arc-secs)0.86
perturbers coarse indicatorM-v
perturbers precise indicator003Ek
first observation date used2002-02-05.0
last observation date used2021-09-04.0
computer nameMPCLINUX
JD of orbit computation2456937.487009
perihelion JD uncertainty (days)1.8097E-04
argument of perihelion uncertainty (°)8.8952E-05
ascending node uncertainty (°)7.4000E-05
inclination uncertainty (°)4.5758E-06
eccentricity uncertainty 3.5456E-08
perihelion distance uncertainty (AU)7.8776E-08
Minimum Orbit Intersection Distances (in AU)
for orbit epoch: 2460400.5, reference: E2024-E11
Mercury1.81943
Venus1.43758
Earth1.17473
Mars0.50705
Jupiter2.5403
Saturn6.85296
Uranus16.2361
Neptune27.4747

Observations

346 total observations over interval: 2002 02 05.26851 – 2021 09 04.333726
These data are available for download (format description).

Date (UT) J2000 RA J2000 Dec Magn Location Ref
2002 02 05.26851 09 36 45.27 +20 57 02.0 19.1 R 699 – Lowell Observatory-LONEOS MPS 170839
2002 02 05.29379 09 36 43.72 +20 57 12.1   699 – Lowell Observatory-LONEOS MPS 170839
2002 02 05.31914 09 36 42.21 +20 57 20.7   699 – Lowell Observatory-LONEOS MPS 170839
2002 02 05.34422 09 36 40.71 +20 57 30.6   699 – Lowell Observatory-LONEOS MPS 170839
2004 10 10.45127 03 34 19.81 +15 56 32.4 20.7 V 691 – Steward Observatory, Kitt Peak-Spacewatch MPS 118661
2004 10 10.47904 03 34 19.02 +15 56 30.6 20.7 V 691 – Steward Observatory, Kitt Peak-Spacewatch MPS 118661
2004 10 10.50632 03 34 18.25 +15 56 28.7 20.7 V 691 – Steward Observatory, Kitt Peak-Spacewatch MPS 118661
2004 10 13.42691 03 32 53.95 +15 53 16.0 20.5 V 691 – Steward Observatory, Kitt Peak-Spacewatch MPS 118661
2004 10 13.45403 03 32 53.01 +15 53 14.1 20.7 V 691 – Steward Observatory, Kitt Peak-Spacewatch MPS 118661
2004 10 13.48075 03 32 52.08 +15 53 11.7 20.7 V 691 – Steward Observatory, Kitt Peak-Spacewatch MPS 118661
2004 10 23.29107 03 26 13.46 +15 37 40.1 20.3 V 691 – Steward Observatory, Kitt Peak-Spacewatch MPS 124106
2004 10 23.32904 03 26 11.51 +15 37 36.0 20.2 V 691 – Steward Observatory, Kitt Peak-Spacewatch MPS 124106
2004 10 23.36040 03 26 09.89 +15 37 32.3 20.3 V 691 – Steward Observatory, Kitt Peak-Spacewatch MPS 124106
2004 11 19.25425 02 58 57.10 +14 34 58.9 19.8 R 703 – Catalina Sky Survey MPS 124106
2004 11 19.26250 02 58 56.53 +14 34 57.2 19.2 R 703 – Catalina Sky Survey MPS 124106
2004 11 19.27078 02 58 55.93 +14 34 55.6 19.8 R 703 – Catalina Sky Survey MPS 124106
2004 11 19.27910 02 58 55.48 +14 34 54.9 19.3 R 703 – Catalina Sky Survey MPS 124106
2004 12 10.17337 02 41 41.74 +14 08 31.1 21.2 R 460 – Area 52 Observatory, Nashville MPS 124106
2004 12 10.18494 02 41 41.30 +14 08 31.8 21.1 R 460 – Area 52 Observatory, Nashville MPS 124106
2004 12 15.06722 02 39 26.01 +14 09 52.5 20.8 V 691 – Steward Observatory, Kitt Peak-Spacewatch MPS 124106
2004 12 15.08339 02 39 25.64 +14 09 53.3 20.6 V 691 – Steward Observatory, Kitt Peak-Spacewatch MPS 124106
2004 12 15.09917 02 39 25.24 +14 09 53.8 20.8 V 691 – Steward Observatory, Kitt Peak-Spacewatch MPS 124106
2006 04 09.28607 14 16 11.53 -08 53 10.6 20.3 V G96 – Mt. Lemmon Survey MPS 169912
2006 04 09.29273 14 16 11.17 -08 53 09.0 20.1 V G96 – Mt. Lemmon Survey MPS 169912
2006 04 09.29937 14 16 10.77 -08 53 07.4 20.2 V G96 – Mt. Lemmon Survey MPS 169912
2006 04 09.30611 14 16 10.41 -08 53 06.0 20.1 V G96 – Mt. Lemmon Survey MPS 169912
2006 04 20.21999 14 05 43.33 -08 10 30.9 20.1 V 691 – Steward Observatory, Kitt Peak-Spacewatch MPS 169912
2006 04 20.23726 14 05 42.22 -08 10 27.0 20.1 V 691 – Steward Observatory, Kitt Peak-Spacewatch MPS 169912
2006 04 20.25454 14 05 41.16 -08 10 23.0 20.3 V 691 – Steward Observatory, Kitt Peak-Spacewatch MPS 169912
2006 05 01.31700 13 54 46.36 -07 30 58.4 19.5 V 703 – Catalina Sky Survey MPS 170839
2006 05 01.32698 13 54 46.00 -07 30 56.9 18.9 V 703 – Catalina Sky Survey MPS 170839
2006 05 01.33689 13 54 45.25 -07 30 56.5 20.0 V 703 – Catalina Sky Survey MPS 170839
2006 05 01.34681 13 54 44.67 -07 30 53.6 20.1 V 703 – Catalina Sky Survey MPS 170839
2006 05 06.15771 13 50 22.11 -07 17 06.2 21.1 V 691 – Steward Observatory, Kitt Peak-Spacewatch MPS 171393
2006 05 06.17502 13 50 21.19 -07 17 04.0 20.6 V 691 – Steward Observatory, Kitt Peak-Spacewatch MPS 171393
2006 05 06.19229 13 50 20.24 -07 17 01.3 20.6 V 691 – Steward Observatory, Kitt Peak-Spacewatch MPS 171393
2006 05 06.21877 13 50 18.78 -07 16 57.6 20.1 V G96 – Mt. Lemmon Survey MPS 171393
2006 05 06.22509 13 50 18.45 -07 16 56.6 20.1 V G96 – Mt. Lemmon Survey MPS 171393
2006 05 06.23133 13 50 18.09 -07 16 55.6 20.2 V G96 – Mt. Lemmon Survey MPS 171393
2006 05 06.23800 13 50 17.73 -07 16 54.6 20.2 V G96 – Mt. Lemmon Survey MPS 171393
2008 10 30.46931 08 24 50.79 +21 11 01.4 21.6 V G96 – Mt. Lemmon Survey MPS 261515
2008 10 30.47605 08 24 51.30 +21 11 00.0 21.9 V G96 – Mt. Lemmon Survey MPS 261515
2008 10 30.48272 08 24 51.76 +21 10 59.7 21.8 V G96 – Mt. Lemmon Survey MPS 261515
2008 10 30.48966 08 24 52.23 +21 10 58.9 21.7 V G96 – Mt. Lemmon Survey MPS 261515
2008 12 03.40398 08 53 49.23 +20 49 41.3 20.9 V G96 – Mt. Lemmon Survey MPS 267506
2008 12 03.41079 08 53 49.38 +20 49 42.5 20.9 V G96 – Mt. Lemmon Survey MPS 267506
2008 12 03.41742 08 53 49.52 +20 49 43.0 20.4 V G96 – Mt. Lemmon Survey MPS 267506
2008 12 03.42409 08 53 49.66 +20 49 43.2 20.7 V G96 – Mt. Lemmon Survey MPS 267506
2008 12 30.08272 08 51 29.23 +22 21 18.4 20.0 V J75 – OAM Observatory, La Sagra MPS 271756
2008 12 30.09667 08 51 28.76 +22 21 23.4 19.7 V J75 – OAM Observatory, La Sagra MPS 271756
2008 12 30.11083 08 51 28.20 +22 21 27.2 19.9 V J75 – OAM Observatory, La Sagra MPS 271756
2008 12 31.32619 08 50 45.51 +22 27 52.4   704 – Lincoln Laboratory ETS, New Mexico MPS 407432
2008 12 31.33909 08 50 45.17 +22 27 59.3   704 – Lincoln Laboratory ETS, New Mexico MPS 407432
2008 12 31.35191 08 50 44.62 +22 28 02.2   704 – Lincoln Laboratory ETS, New Mexico MPS 407432
2008 12 31.36980 08 50 43.98 +22 28 07.3 19.9 V G96 – Mt. Lemmon Survey MPS 270126
2008 12 31.38345 08 50 43.44 +22 28 12.0 20.1 V G96 – Mt. Lemmon Survey MPS 270126
2008 12 31.39561 08 50 42.97 +22 28 15.4 20.0 V G96 – Mt. Lemmon Survey MPS 270126
2008 12 31.41247 08 50 42.34 +22 28 21.8 19.8 V 691 – Steward Observatory, Kitt Peak-Spacewatch MPS 270126
2008 12 31.43086 08 50 41.55 +22 28 27.0 19.9 V 691 – Steward Observatory, Kitt Peak-Spacewatch MPS 270126
2008 12 31.44663 08 50 40.93 +22 28 32.3 20.0 V 691 – Steward Observatory, Kitt Peak-Spacewatch MPS 270126
2009 01 17.26696 08 36 25.29 +24 04 55.2 19.4   704 – Lincoln Laboratory ETS, New Mexico MPS 276295
2009 01 17.27932 08 36 24.57 +24 04 59.1 19.7   704 – Lincoln Laboratory ETS, New Mexico MPS 276295
2009 01 17.29159 08 36 23.65 +24 05 02.3 19.3   704 – Lincoln Laboratory ETS, New Mexico MPS 276295
2009 01 17.30384 08 36 22.87 +24 05 08.1 19.1   704 – Lincoln Laboratory ETS, New Mexico MPS 276295
2009 01 17.31606 08 36 22.09 +24 05 12.5 19.9   704 – Lincoln Laboratory ETS, New Mexico MPS 276295
2009 01 17.34437 08 36 20.34 +24 05 19.7 19.0 V 703 – Catalina Sky Survey MPS 276295
2009 01 17.35163 08 36 19.76 +24 05 23.7 19.7 V 703 – Catalina Sky Survey MPS 276295
2009 01 17.35893 08 36 19.26 +24 05 26.1 19.6 V 703 – Catalina Sky Survey MPS 276295
2009 01 17.36619 08 36 18.90 +24 05 28.5 19.2 V 703 – Catalina Sky Survey MPS 276295
2009 01 18.23595 08 35 24.93 +24 10 24.8   691 – Steward Observatory, Kitt Peak-Spacewatch MPS 276295
2009 01 18.25437 08 35 23.71 +24 10 30.9   691 – Steward Observatory, Kitt Peak-Spacewatch MPS 276295
2009 01 18.26998 08 35 22.74 +24 10 36.6   691 – Steward Observatory, Kitt Peak-Spacewatch MPS 276295
2009 01 25.33803 08 27 45.75 +24 48 38.7 19.0 V 703 – Catalina Sky Survey MPS 276295
2009 01 25.34594 08 27 45.25 +24 48 42.0 19.6 V 703 – Catalina Sky Survey MPS 276295
2009 01 25.35375 08 27 44.71 +24 48 45.1 19.5 V 703 – Catalina Sky Survey MPS 276295
2009 01 25.36166 08 27 44.10 +24 48 47.3 19.2 V 703 – Catalina Sky Survey MPS 276295
2009 01 30.27188 08 22 24.77 +25 11 55.9 19.6   704 – Lincoln Laboratory ETS, New Mexico MPS 276295
2009 01 30.28433 08 22 24.01 +25 11 59.5 20.1   704 – Lincoln Laboratory ETS, New Mexico MPS 276295
2009 01 30.29659 08 22 23.17 +25 12 01.9 19.8   704 – Lincoln Laboratory ETS, New Mexico MPS 276295
2009 01 30.30934 08 22 22.26 +25 12 05.4 19.9   704 – Lincoln Laboratory ETS, New Mexico MPS 276295
2009 01 30.32163 08 22 21.44 +25 12 09.4 20.0   704 – Lincoln Laboratory ETS, New Mexico MPS 276295
2009 02 01.26567 08 20 18.07 +25 20 23.5 19.8   704 – Lincoln Laboratory ETS, New Mexico MPS 276295
2009 02 01.27790 08 20 17.29 +25 20 26.4 19.7   704 – Lincoln Laboratory ETS, New Mexico MPS 276295
2009 02 01.30254 08 20 15.61 +25 20 32.7 20.3   704 – Lincoln Laboratory ETS, New Mexico MPS 276295
2009 02 03.11480 08 18 23.56 +25 27 37.5 19.8 V 691 – Steward Observatory, Kitt Peak-Spacewatch MPS 276295
2009 02 03.13293 08 18 22.39 +25 27 42.1 19.9 V 691 – Steward Observatory, Kitt Peak-Spacewatch MPS 276295
2009 02 03.15106 08 18 21.31 +25 27 46.3 19.6 V 691 – Steward Observatory, Kitt Peak-Spacewatch MPS 276295
